Home > Weather > Budapest > Past weeks

Flag for Hungary Past Weather in Budapest, Hungary — Yesterday and Last 2 Weeks

Now
93 °F

Sunny.


Feels Like: 93 °F
Forecast: 69 / 85 °F
Wind: 13 mph from Southeast

Location: Ferenc Liszt International Airport

Current Time: Jun 25, 2016 at 5:56:22 PM

Latest Report: Jun 25, 2016 at 5:30 PM


Visibility: 10 mi

Pressure: 29.89 "Hg

Humidity: 32%

Dew Point: 59 °F

Location of BudapestLocation

Past Weather in Budapest — Graph

°F

Budapest Temperature Yesterday

Maximum temperature yesterday: 93 °F (at 2:30 PM)
Minimum temperature yesterday: 66 °F (at 2:00 AM)
Average temperature yesterday: 81 °F

High & Low Weather Summary for the Past Weeks

 TemperatureHumidityPressure
High93 °F (Jun 23, 4:00 PM)100% (Jun 10, 10:30 PM)30.24 "Hg (Jun 10, 10:30 PM)
Low52 °F (Jun 11, 3:00 AM)27% (Jun 22, 3:00 PM)29.50 "Hg (Jun 14, 2:30 PM)
Average71 °F70%29.91 "Hg
* Reported Jun 10 5:00 PM — Jun 25 5:00 PM, Budapest, Weather by CustomWeather, © 2016

Note: Actual official high and low records may vary slightly from our data, if they occured in-between our weather recording intervals... More about our weather records

Advertising

Budapest Weather History for the Previous 24 Hours

Scroll right to see more
 ConditionsComfort  
Time TempWeatherWind HumidityBarometerVisibility
5:00 PM
Sat, Jun 25
93 °FPassing clouds.14 mph32%29.89 "HgN/A
4:30 PM93 °FPassing clouds.16 mph34%29.92 "HgN/A
4:00 PM93 °FPassing clouds.16 mph34%29.92 "HgN/A
3:30 PM93 °FPassing clouds.14 mph34%29.92 "HgN/A
3:00 PM93 °FSunny.15 mph34%29.92 "Hg10 mi
2:30 PM93 °FSunny.14 mph36%29.95 "Hg10 mi
2:00 PM91 °FPassing clouds.13 mph38%29.95 "HgN/A
1:30 PM91 °FPassing clouds.13 mph41%29.95 "HgN/A
1:00 PM93 °FPassing clouds.13 mph39%29.98 "HgN/A
12:30 PM90 °FPassing clouds.14 mph41%29.98 "HgN/A
12:00 PM90 °FPassing clouds.13 mph41%29.98 "HgN/A
11:30 AM88 °FPassing clouds.10 mph43%29.98 "HgN/A
11:00 AM88 °FPassing clouds.12 mph43%29.98 "HgN/A
10:30 AM86 °FPassing clouds.14 mph43%30.01 "HgN/A
10:00 AM86 °FSunny.13 mph43%30.01 "Hg10 mi
9:30 AM84 °FPassing clouds.9 mph48%30.01 "HgN/A
9:00 AM82 °FSunny.12 mph51%30.01 "Hg10 mi
8:30 AM82 °FSunny.10 mph51%30.01 "Hg10 mi
8:00 AM82 °FPassing clouds.8 mph51%30.01 "HgN/A
7:30 AM79 °FSunny.6 mph65%30.01 "Hg10 mi
7:00 AM77 °FSunny.6 mph74%30.01 "Hg10 mi
6:30 AM73 °FSunny.1 mph78%30.01 "Hg10 mi
6:00 AM70 °FSunny.No wind88%30.01 "Hg10 mi
5:30 AM70 °FClear.No wind83%30.01 "Hg10 mi
5:00 AM68 °FClear.1 mph94%29.98 "Hg10 mi
4:30 AM68 °FClear.2 mph94%29.98 "Hg10 mi
4:00 AM70 °FPassing clouds.5 mph88%30.01 "HgN/A
3:30 AM70 °FClear.3 mph88%30.01 "Hg10 mi
3:00 AM72 °FClear.3 mph88%30.01 "Hg10 mi
2:30 AM72 °FClear.No wind88%30.01 "Hg10 mi
2:00 AM72 °FClear.No wind88%30.01 "Hg10 mi
1:30 AM73 °FClear.No wind83%30.04 "Hg10 mi
1:00 AM75 °FClear.5 mph78%30.04 "Hg10 mi
12:30 AM75 °FClear.3 mph78%30.04 "Hg10 mi
12:00 AM75 °FPassing clouds.5 mph78%30.04 "HgN/A
11:30 PM
Fri, Jun 24
77 °FClear.6 mph74%30.04 "Hg10 mi
11:00 PM79 °FClear.5 mph70%30.01 "Hg10 mi
10:30 PM82 °FClear.9 mph62%30.04 "Hg10 mi
10:00 PM82 °FPassing clouds.9 mph66%30.04 "HgN/A
9:30 PM81 °FScattered clouds.5 mph70%30.01 "HgN/A
9:00 PM82 °FSunny.6 mph66%30.01 "Hg10 mi
8:30 PM82 °FSunny.6 mph62%30.01 "Hg10 mi
8:00 PM88 °FSunny.7 mph52%30.01 "Hg10 mi
7:30 PM88 °FSunny.8 mph49%30.01 "Hg10 mi
7:00 PM90 °FSunny.10 mph46%30.01 "Hg10 mi
6:30 PM93 °FPassing clouds.10 mph39%30.01 "HgN/A
6:00 PM93 °FPassing clouds.9 mph41%30.01 "HgN/A
5:30 PM93 °FPassing clouds.9 mph41%30.01 "HgN/A
5:00 PM93 °FPassing clouds.6 mph41%30.01 "HgN/A
Weather by CustomWeather, © 2016

See weather overviewHow to use our weather pages